Regional Weather Roundup
Issued by NWS Glasgow, MT

Home | Current Version | Previous Version | Text Only | Print | Product List | Glossary On
Versions: 1 2 3 4 5 6 7 8 9 10 11 12 13 14 15 16 17 18 19 20 21 22 23 24 25 26 27 28 29 30 31 32 33 34 35 36 37 38 39 40 41 42 43 44 45 46 47 48 49 50
000
ASUS45 KGGW 282215
RWRGGW
HOURLY REGIONAL WEATHER ROUNDUP FOR NORTHEAST MONTANA
NATIONAL WEATHER SERVICE GLASGOW MONTANA
400 PM MDT TUE JUL 28 2015

NOTE: "FAIR" INDICATES FEW OR NO CLOUDS BELOW 12,000 FEET WITH NO
SIGNIFICANT WEATHER AND/OR OBSTRUCTIONS TO VISISBILITY.

NORTHEAST MONTANA


CITY           SKY/WX    TMP DP  RH WIND       PRES   REMARKS
GLASGOW        PTSUNNY   65  50  58 W29G37    29.87R
PLENTYWOOD       N/A     56  51  84 W41G58      N/A
WOLF POINT     LGT RAIN  63  52  67 W31G53    29.85R
JORDAN           N/A     72  44  36 NW26G39   29.97R
WINNETT          N/A     74  36  25 W25G36      N/A
SIDNEY         CLOUDY    59  52  77 W24G37    29.79R
GLENDIVE       CLOUDY    64  46  52 W35G56    29.92R
MALTA            N/A     72  40  31 NW18G33     N/A
SCOBEY           N/A     57  48  72 W37G55    29.76R HAZE

FORT PECK REPORTS


CITY           SKY/WX    TMP DP  RH WIND       PRES   REMARKS
FORT PECK        N/A     64  51  62 W35G49      N/A
THE PINES        N/A     67  44  43 W16G28      N/A

SOUTHEAST MONTANA


CITY           SKY/WX    TMP DP  RH WIND       PRES   REMARKS
BILLINGS       MOSUNNY   74  34  23 NW21G31   30.14S
MILES CITY     PTSUNNY   73  42  32 W40G52    29.98F
BAKER          NOT AVBL
LIVINGSTON     MOSUNNY   70  36  28 W21G33    30.22F

CENTRAL MONTANA


CITY           SKY/WX    TMP DP  RH WIND       PRES   REMARKS
HAVRE          PTSUNNY   75  41  29 NW20G31   30.01R
LEWISTOWN      PTSUNNY   69  38  32 NW20G30   30.13R
GREAT FALLS    MOSUNNY   73  33  23 W14G24    30.11S
CUT BANK       MOSUNNY   73  34  23 W16G28    30.10S
HELENA         MOSUNNY   73  38  27 W17G29    30.19R
BUTTE          SUNNY     63  33  32 SW10      30.29S
BOZEMAN        PTSUNNY   67  35  30 W10       30.24F

WESTERN MONTANA


CITY           SKY/WX    TMP DP  RH WIND       PRES   REMARKS
MISSOULA       PTSUNNY   73  38  27 VRB6      30.21S
KALISPELL      NOT AVBL

NORTH DAKOTA


CITY           SKY/WX    TMP DP  RH WIND       PRES   REMARKS
WILLISTON      RAIN      58  54  86 W36G48    29.65R FOG
DICKINSON      CLOUDY    66  46  48 W46G66    29.82R
MINOT          LGT RAIN  66  49  54 SW35G52   29.51F
BISMARCK       PTSUNNY   70  47  43 W29G52    29.78R

SOUTHERN SASKATCHEWAN


CITY           SKY/WX    TMP DP  RH WIND       PRES   REMARKS
REGINA         LGT RAIN  57  55  94 NW37G48   29.48R
ESTEVAN        LGT RAIN  61  57  88 W26G38    29.29R
SWIFT CURRENT  MOSUNNY   66  50  55 NW28G39   29.82R




USA.gov is the U.S. government's official web portal to all federal, state and local government web resources and services.